Powrót do katalogu

GRIFON-2

AktywnyNaukaSSO
NORAD 67269·PAYLOAD·🇷🇺 Russia
Ta nazwa satelity nie została jeszcze potwierdzona przez oficjalne źródła.

Wystrzelony Dec 28, 2025 z Vostochny Cosmodrome

Loading…

Następne Przeloty (najbliższe 24 godziny)

TLE

ŚwieżeSource: Space-Track

Epoka: Sep 14, 2026, 03:38 UTC

1 67269U 25313X   26257.15192376  .00010040  00000-0  38256-3 0  9992
2 67269  97.3893 331.1266 0014157  52.3467 307.9053 15.26815001 39534

Śledź GRIFON-2 w czasie rzeczywistym z AllMySat

Download on the App Store